Location: Paris
(48.6709°N, 2.3750°E)
Time: 08:36:31
(UTC+02:00)

YUBILEINY - Pass Details

Date: 05 July 2022
Orbit: 1478 x 1509 km, 82.5° (Epoch: 07 August)

Event Time Altitude Azimuth Distance (km) Brightness Sun altitude
Rises 04:31:56 0° 351° (N) 4,653 ? -10.4°
Reaches altitude 10° 04:35:07 10° 359° (N) 3,665 ? -10.1°
Maximum altitude 04:43:20 41° 67° (ENE) 2,054 ? -9.3°
Drops below altitude 10° 04:51:26 10° 136° (SE) 3,626 ? -8.4°
Sets 04:54:33 0° 143° (SE) 4,598 ? -8.1°
